Weather History for Big Bear City, CA

Change the Weather History Date:

Saturday, December 8, 2012

  Actual Average (KBUO) Record (KBUO)
Temperature  
Mean Temperature 35 °F -  
Max Temperature 53 °F 59 °F 71 °F (1996)
Min Temperature 17 °F 42 °F 32 °F (1999)
Degree Days  
Heating Degree Days 30    
Moisture  
Dew Point 9 °F    
Average Humidity 43    
Maximum Humidity 63    
Minimum Humidity 9    
Precipitation  
Precipitation 0.00 in - - ()
Sea Level Pressure  
Sea Level Pressure 30.07 in    
Wind  
Wind Speed 1 mph (WSW)    
Max Wind Speed 9 mph    
Max Gust Speed -    
Visibility 10 miles    
Events      
Averages and records for this station are not official NWS values.
T = Trace of Precipitation, MM = Missing Value Source: NWS Daily Summary

Daily Weather History Graph

Daily Weather History Graph

Search for Another Location

Airport:

Trip Planner

Search our weather history database for the weather conditions in past years. The results will help you decide how hot, cold, wet, or windy it might be!

Date:

Astronomy

Dec. 08, 2012 Rise Set
Actual Time 6:41 AM PST 4:37 PM PST
Civil Twilight 6:13 AM PST 5:05 PM PST
Nautical Twilight 5:42 AM PST 5:36 PM PST
Astronomical Twilight 5:12 AM PST 6:07 PM PST
Moon 1:22 AM PST (12/8) 1:00 PM PST (12/8)
Length of Visible Light 10h 51m
Length of Day
9h 56m
Waning Crescent, 27% of the Moon is Illuminated
Dec 8
Waning Crescent
Dec 13
New
Dec 19
First Quarter
Dec 28
Full
Jan 4
Last Quarter

Hourly Weather History & Observations

Time (PST) Temp. Windchill Dew Point Humidity Pressure Visibility Wind Dir Wind Speed Gust Speed Precip Events Conditions
12:15 AM 21.2 °F - 10.4 °F 63% 30.11 in 10.0 mi Calm Calm - N/A   Clear
12:35 AM 21.2 °F - 8.6 °F 58% 30.11 in 10.0 mi Calm Calm - N/A   Clear
12:55 AM 21.2 °F - 8.6 °F 58% 30.11 in 10.0 mi Calm Calm - N/A   Clear
1:15 AM 21.2 °F - 8.6 °F 58% 30.11 in 10.0 mi Calm Calm - N/A   Clear
1:35 AM 21.2 °F - 8.6 °F 58% 30.10 in 10.0 mi Calm Calm - N/A   Clear
1:55 AM 19.4 °F - 6.8 °F 58% 30.10 in 10.0 mi Calm Calm - N/A   Clear
2:15 AM 19.4 °F - 6.8 °F 58% 30.09 in 10.0 mi Calm Calm - N/A   Clear
2:35 AM 19.4 °F - 6.8 °F 58% 30.09 in 10.0 mi Calm Calm - N/A   Clear
2:55 AM 19.4 °F - 6.8 °F 58% 30.08 in 10.0 mi Calm Calm - N/A   Clear
3:15 AM 19.4 °F - 6.8 °F 58% 30.08 in 10.0 mi Calm Calm - N/A   Clear
3:35 AM 19.4 °F - 5.0 °F 54% 30.08 in 10.0 mi Calm Calm - N/A   Clear
3:55 AM 17.6 °F - 5.0 °F 58% 30.08 in 10.0 mi Calm Calm - N/A   Clear
4:15 AM 17.6 °F - 5.0 °F 58% 30.08 in 10.0 mi Calm Calm - N/A   Clear
4:35 AM 17.6 °F - 5.0 °F 58% 30.08 in 10.0 mi Calm Calm - N/A   Clear
4:55 AM 17.6 °F - 6.8 °F 63% 30.08 in 10.0 mi Calm Calm - N/A   Clear
5:15 AM 17.6 °F - 6.8 °F 63% 30.08 in 10.0 mi Calm Calm - N/A   Clear
5:35 AM 17.6 °F - 6.8 °F 63% 30.08 in 10.0 mi Calm Calm - N/A   Clear
5:55 AM 17.6 °F - 6.8 °F 63% 30.08 in 10.0 mi Calm Calm - N/A   Clear
6:15 AM 17.6 °F - 6.8 °F 63% 30.08 in 10.0 mi Calm Calm - N/A   Clear
6:35 AM 17.6 °F - 5.0 °F 58% 30.08 in 10.0 mi Calm Calm - N/A   Clear
6:55 AM 17.6 °F - 5.0 °F 58% 30.08 in 10.0 mi Calm Calm - N/A   Clear
7:15 AM 17.6 °F - 6.8 °F 63% 30.08 in 10.0 mi Calm Calm - N/A   Clear
7:35 AM 19.4 °F - 5.0 °F 54% 30.09 in 10.0 mi Calm Calm - N/A   Clear
7:55 AM 23.0 °F - 8.6 °F 54% 30.09 in 10.0 mi Calm Calm - N/A   Clear
8:15 AM 26.6 °F - 10.4 °F 51% 30.09 in 10.0 mi Calm Calm - N/A   Clear
8:35 AM 28.4 °F - 12.2 °F 51% 30.10 in 10.0 mi Calm Calm - N/A   Clear
8:55 AM 32.0 °F - 14.0 °F 48% 30.09 in 10.0 mi Calm Calm - N/A   Clear
9:15 AM 37.4 °F - 12.2 °F 36% 30.09 in 10.0 mi Calm Calm - N/A   Clear
9:35 AM 42.8 °F - 5.0 °F 21% 30.09 in 10.0 mi Calm Calm - N/A   Clear
9:55 AM 44.6 °F - -0.4 °F 15% 30.09 in 10.0 mi Calm Calm - N/A   Clear
10:15 AM 50.0 °F - -4.0 °F 11% 30.09 in 10.0 mi Calm Calm - N/A   Clear
10:35 AM 50.0 °F - -0.4 °F 13% 30.08 in 10.0 mi West 6.9 mph - N/A   Clear
10:55 AM 50.0 °F - 6.8 °F 17% 30.08 in 10.0 mi West 9.2 mph - N/A   Clear
11:15 AM 50.0 °F - 10.4 °F 20% 30.06 in 10.0 mi West 8.1 mph - N/A   Clear
11:35 AM 51.8 °F - 3.2 °F 14% 30.06 in 10.0 mi West 3.5 mph - N/A   Clear
11:55 AM 51.8 °F - -5.8 °F 9% 30.05 in 10.0 mi NNE 4.6 mph - N/A   Clear
12:15 PM 51.8 °F - 10.4 °F 19% 30.05 in 10.0 mi West 4.6 mph - N/A   Clear
12:35 PM 53.6 °F - 12.2 °F 19% 30.04 in 10.0 mi WSW 3.5 mph - N/A   Clear
12:55 PM 53.6 °F - 12.2 °F 19% 30.04 in 10.0 mi West 9.2 mph - N/A   Clear
1:15 PM 53.6 °F - 3.2 °F 13% 30.03 in 10.0 mi ESE 3.5 mph - N/A   Clear
1:35 PM 51.8 °F - 10.4 °F 19% 30.03 in 10.0 mi West 5.8 mph - N/A   Clear
1:55 PM 51.8 °F - 17.6 °F 26% 30.03 in 10.0 mi West 8.1 mph - N/A   Clear
2:15 PM 51.8 °F - 17.6 °F 26% 30.03 in 10.0 mi SW 3.5 mph - N/A   Clear
2:35 PM 51.8 °F - 17.6 °F 26% 30.03 in 10.0 mi West 8.1 mph - N/A   Clear
2:55 PM 51.8 °F - 15.8 °F 24% 30.03 in 10.0 mi SW 3.5 mph - N/A   Clear
3:15 PM 50.0 °F - 3.2 °F 15% 30.03 in 10.0 mi East 4.6 mph - N/A   Clear
3:35 PM 50.0 °F - 5.0 °F 16% 30.03 in 10.0 mi East 4.6 mph - N/A   Clear
3:55 PM 46.4 °F 45.2 °F 5.0 °F 18% 30.03 in 10.0 mi East 3.5 mph - N/A   Clear
4:15 PM 44.6 °F - 6.8 °F 21% 30.03 in 10.0 mi Calm Calm - N/A   Clear
4:35 PM 42.8 °F - 8.6 °F 25% 30.04 in 10.0 mi Calm Calm - N/A   Clear
4:55 PM 39.2 °F - 10.4 °F 31% 30.04 in 10.0 mi Calm Calm - N/A   Clear
5:35 PM 33.8 °F - 10.4 °F 38% 30.05 in 10.0 mi Calm Calm - N/A   Clear
6:15 PM 32.0 °F - 14.0 °F 48% 30.06 in 10.0 mi Calm Calm - N/A   Clear
6:35 PM 32.0 °F - 14.0 °F 48% 30.06 in 10.0 mi Calm Calm - N/A   Clear
6:55 PM 30.2 °F - 14.0 °F 51% 30.07 in 10.0 mi Calm Calm - N/A   Clear
7:15 PM 30.2 °F - 14.0 °F 51% 30.07 in 10.0 mi Calm Calm - N/A   Clear
7:55 PM 28.4 °F - 14.0 °F 55% 30.08 in 10.0 mi Calm Calm - N/A   Clear
8:35 PM 28.4 °F - 12.2 °F 51% 30.08 in 10.0 mi Calm Calm - N/A   Clear
8:55 PM 26.6 °F - 12.2 °F 55% 30.08 in 10.0 mi Calm Calm - N/A   Clear
9:15 PM 26.6 °F - 12.2 °F 55% 30.09 in 10.0 mi Calm Calm - N/A   Clear
9:35 PM 26.6 °F - 12.2 °F 55% 30.08 in 10.0 mi Calm Calm - N/A   Clear
9:55 PM 26.6 °F - 12.2 °F 55% 30.09 in 10.0 mi Calm Calm - N/A   Clear
10:15 PM 26.6 °F - 12.2 °F 55% 30.09 in 10.0 mi Calm Calm - N/A   Clear
10:35 PM 26.6 °F - 12.2 °F 55% 30.09 in 10.0 mi Calm Calm - N/A   Clear
11:15 PM 26.6 °F - 12.2 °F 55% 30.09 in 10.0 mi Calm Calm - N/A   Clear
11:35 PM 26.6 °F - 12.2 °F 55% 30.09 in 10.0 mi Calm Calm - N/A   Clear
11:55 PM 24.8 °F - 12.2 °F 59% 30.09 in 10.0 mi Calm Calm - N/A   Clear